| time (UTC) | temp F | wind direction | speed knots | gust knots | rain 1hr in | rain 24hr in | rain mn in | humidity % | barometer mb |
| 20260510065004 | 57 | 68 | 0.0 | 1.7 | 0.01 | 0.27 | 0.20 | 95 | 1010.2 |
| 20260510064004 | 57 | 54 | 0.0 | 2.6 | 0.01 | 0.27 | 0.20 | 95 | 1010.2 |
| 20260510063005 | 58 | 71 | 0.0 | 0.9 | 0.01 | 0.27 | 0.20 | 95 | 1010.1 |
| 20260510062004 | 57 | 72 | 0.0 | 2.6 | 0.01 | 0.27 | 0.20 | 95 | 1010.1 |
| 20260510061004 | 57 | 62 | 0.0 | 3.5 | 0.00 | 0.26 | 0.20 | 95 | 1009.9 |
| 20260510060006 | 57 | 74 | 0.0 | 0.9 | 0.00 | 0.26 | 0.20 | 95 | 1009.9 |
| 20260510055004 | 57 | 42 | 0.0 | 1.7 | 0.00 | 0.26 | 0.20 | 95 | 1009.8 |
| 20260510054004 | 57 | 17 | 0.0 | 0.9 | 0.00 | 0.26 | 0.20 | 95 | 1009.9 |
| 20260510053005 | 57 | 16 | 0.0 | 1.7 | 0.00 | 0.26 | 0.20 | 95 | 1009.8 |
| 20260510052004 | 57 | 14 | 0.0 | 2.6 | 0.00 | 0.26 | 0.20 | 95 | 1009.8 |
| 20260510051004 | 57 | 346 | 0.0 | 1.7 | 0.00 | 0.26 | 0.20 | 95 | 1009.8 |
| 20260510050005 | 57 | 5 | 0.9 | 2.6 | 0.00 | 0.26 | 0.20 | 95 | 1009.8 |
| 20260510045004 | 57 | 352 | 0.0 | 2.6 | 0.00 | 0.26 | 0.20 | 95 | 1009.9 |
| 20260510044004 | 57 | 27 | 0.0 | 0.9 | 0.01 | 0.26 | 0.20 | 95 | 1010.0 |
| 20260510043004 | 57 | 5 | 0.0 | 2.6 | 0.01 | 0.26 | 0.20 | 95 | 1010.1 |
| 20260510041004 | 57 | 26 | 0.9 | 2.6 | 0.01 | 0.26 | 0.20 | 95 | 1010.3 |
| 20260510040004 | 57 | 2 | 0.9 | 2.6 | 0.02 | 0.26 | 0.20 | 95 | 1010.3 |
| 20260510035004 | 57 | 11 | 0.9 | 2.6 | 0.02 | 0.26 | 0.20 | 95 | 1010.4 |
| 20260510034004 | 58 | 33 | 0.0 | 1.7 | 0.02 | 0.25 | 0.19 | 95 | 1010.3 |
| 20260510032004 | 58 | 15 | 0.0 | 0.9 | 0.03 | 0.25 | 0.19 | 95 | 1010.6 |
| 20260510031004 | 58 | 11 | 0.0 | 0.9 | 0.03 | 0.25 | 0.19 | 95 | 1010.6 |
| 20260510030005 | 58 | 11 | 0.0 | 1.7 | 0.02 | 0.24 | 0.18 | 95 | 1010.5 |
| 20260510025004 | 58 | 31 | 0.0 | 0.9 | 0.02 | 0.24 | 0.18 | 95 | 1010.6 |
| 20260510024004 | 58 | 29 | 0.0 | 0.9 | 0.02 | 0.24 | 0.17 | 95 | 1010.6 |
| 20260510023004 | 58 | 55 | 0.0 | 2.6 | 0.02 | 0.23 | 0.17 | 94 | 1010.8 |
| 20260510022004 | 58 | 68 | 0.0 | 0.9 | 0.01 | 0.22 | 0.16 | 95 | 1010.8 |
| 20260510021004 | 58 | 68 | 0.0 | 0.9 | 0.01 | 0.22 | 0.16 | 95 | 1010.9 |
| 20260510014003 | 58 | 58 | 0.0 | 0.9 | 0.05 | 0.22 | 0.16 | 95 | 1010.9 |
| 20260510013005 | 58 | 50 | 0.0 | 0.9 | 0.05 | 0.21 | 0.15 | 95 | 1011.1 |
| 20260510012004 | 58 | 4 | 0.0 | 0.9 | 0.05 | 0.21 | 0.15 | 94 | 1011.1 |
| 20260510011004 | 58 | 293 | 0.0 | 0.9 | 0.06 | 0.21 | 0.15 | 94 | 1011.2 |
| 20260510010005 | 58 | 293 | 0.0 | 0.9 | 0.05 | 0.20 | 0.13 | 94 | 1011.4 |
| 20260510005004 | 58 | 289 | 0.0 | 0.9 | 0.04 | 0.19 | 0.13 | 94 | 1011.4 |
| 20260510004004 | 58 | 289 | 0.0 | 0.9 | 0.02 | 0.17 | 0.11 | 94 | 1011.5 |
| 20260510003005 | 59 | 289 | 0.0 | 0.9 | 0.02 | 0.17 | 0.10 | 94 | 1011.6 |
| 20260510001004 | 59 | 289 | 0.0 | 0.9 | 0.02 | 0.16 | 0.09 | 94 | 1011.7 |
| 20260510000004 | 59 | 313 | 0.0 | 0.9 | 0.03 | 0.15 | 0.09 | 94 | 1011.8 |
| 20260509235004 | 59 | 13 | 0.0 | 0.9 | 0.03 | 0.15 | 0.09 | 94 | 1011.9 |
| 20260509234004 | 59 | 11 | 0.0 | 1.7 | 0.04 | 0.15 | 0.09 | 94 | 1012.0 |
| 20260509233006 | 59 | 0 | 0.0 | 0.0 | 0.06 | 0.14 | 0.08 | 94 | 1012.1 |
| 20260509232003 | 59 | 266 | 0.0 | 0.9 | 0.07 | 0.13 | 0.07 | 94 | 1012.2 |
| 20260509231004 | 59 | 266 | 0.0 | 0.9 | 0.06 | 0.13 | 0.06 | 93 | 1012.1 |
| 20260509230005 | 60 | 266 | 0.0 | 0.9 | 0.06 | 0.12 | 0.06 | 94 | 1012.1 |
| 20260509225004 | 60 | 266 | 0.0 | 0.9 | 0.06 | 0.12 | 0.06 | 93 | 1012.1 |
| 20260509223005 | 60 | 0 | 0.0 | 0.0 | 0.03 | 0.09 | 0.02 | 93 | 1012.1 |
| 20260509221004 | 60 | 266 | 0.0 | 0.9 | 0.02 | 0.06 | 0.00 | 93 | 1011.7 |
| 20260509220009 | 60 | 264 | 0.0 | 0.9 | 0.02 | 0.06 | 0.00 | 93 | 1011.7 |
| 20260509214004 | 60 | 0 | 0.0 | 0.0 | 0.05 | 0.06 | 0.06 | 92 | 1011.6 |
| 20260509213005 | 60 | 0 | 0.0 | 0.0 | 0.04 | 0.06 | 0.06 | 92 | 1011.7 |
| 20260509211004 | 61 | 0 | 0.0 | 0.0 | 0.05 | 0.05 | 0.05 | 90 | 1011.7 |
| 20260509210005 | 61 | 229 | 0.0 | 0.9 | 0.03 | 0.03 | 0.03 | 89 | 1011.8 |
| 20260509205004 | 61 | 211 | 0.0 | 3.5 | 0.03 | 0.03 | 0.03 | 88 | 1011.9 |
| 20260509204004 | 61 | 196 | 0.9 | 4.3 | 0.02 | 0.02 | 0.02 | 86 | 1011.9 |
| 20260509203004 | 62 | 214 | 0.0 | 3.5 | 0.02 | 0.02 | 0.02 | 85 | 1011.9 |
| 20260509202004 | 63 | 146 | 0.0 | 2.6 | 0.01 | 0.01 | 0.01 | 83 | 1011.8 |
| 20260509195004 | 63 | 223 | 0.0 | 0.9 | 0.00 | 0.00 | 0.00 | 77 | 1011.4 |
| 20260509194005 | 63 | 227 | 0.0 | 0.9 | 0.00 | 0.00 | 0.00 | 76 | 1011.4 |
| 20260509193005 | 63 | 0 | 0.0 | 0.0 | 0.00 | 0.00 | 0.00 | 76 | 1011.3 |
| 20260509192004 | 63 | 215 | 0.0 | 2.6 | 0.00 | 0.00 | 0.00 | 75 | 1011.2 |
| 20260509190006 | 63 | 0 | 0.0 | 0.0 | 0.00 | 0.00 | 0.00 | 73 | 1011.1 |
| 20260509185004 | 63 | 0 | 0.0 | 0.0 | 0.00 | 0.00 | 0.00 | 73 | 1010.9 |
| 20260509184004 | 64 | 0 | 0.0 | 0.0 | 0.00 | 0.00 | 0.00 | 70 | 1010.9 |
| 20260509183004 | 64 | 0 | 0.0 | 0.0 | 0.00 | 0.00 | 0.00 | 69 | 1011.1 |
| 20260509182004 | 64 | 0 | 0.0 | 0.0 | 0.00 | 0.00 | 0.00 | 68 | 1011.1 |
| 20260509180004 | 65 | 80 | 0.0 | 0.9 | 0.00 | 0.00 | 0.00 | 66 | 1010.9 |
| 20260509175004 | 65 | 0 | 0.0 | 0.0 | 0.00 | 0.00 | 0.00 | 64 | 1010.7 |
| 20260509174004 | 65 | 208 | 0.0 | 0.9 | 0.00 | 0.00 | 0.00 | 64 | 1010.6 |
| 20260509173005 | 65 | 208 | 0.0 | 0.9 | 0.00 | 0.00 | 0.00 | 60 | 1010.6 |
| 20260509172004 | 65 | 214 | 0.0 | 0.9 | 0.00 | 0.00 | 0.00 | 62 | 1010.5 |
| 20260509171004 | 66 | 213 | 0.0 | 0.9 | 0.00 | 0.00 | 0.00 | 62 | 1010.5 |
| 20260509170005 | 66 | 191 | 0.0 | 2.6 | 0.00 | 0.00 | 0.00 | 60 | 1010.6 |
| 20260509165003 | 66 | 168 | 0.0 | 2.6 | 0.00 | 0.00 | 0.00 | 58 | 1010.6 |
| 20260509164005 | 67 | 152 | 0.9 | 4.3 | 0.00 | 0.00 | 0.00 | 58 | 1010.9 |
| 20260509163004 | 67 | 128 | 0.9 | 4.3 | 0.00 | 0.00 | 0.00 | 56 | 1010.9 |
| 20260509162004 | 67 | 202 | 0.0 | 3.5 | 0.00 | 0.00 | 0.00 | 56 | 1011.1 |
| 20260509160005 | 68 | 214 | 0.9 | 3.5 | 0.00 | 0.00 | 0.00 | 53 | 1011.3 |
| 20260509155003 | 68 | 223 | 0.0 | 2.6 | 0.00 | 0.00 | 0.00 | 55 | 1011.3 |
| 20260509154004 | 68 | 128 | 0.0 | 2.6 | 0.00 | 0.00 | 0.00 | 53 | 1011.3 |
| 20260509153006 | 68 | 198 | 0.9 | 3.5 | 0.00 | 0.00 | 0.00 | 52 | 1011.6 |
| 20260509152004 | 68 | 129 | 0.9 | 3.5 | 0.00 | 0.00 | 0.00 | 50 | 1011.8 |
| 20260509151004 | 69 | 143 | 0.9 | 4.3 | 0.00 | 0.00 | 0.00 | 49 | 1011.9 |
| 20260509150008 | 69 | 107 | 0.9 | 3.5 | 0.00 | 0.00 | 0.00 | 47 | 1011.8 |
| 20260509145004 | 69 | 89 | 0.9 | 3.5 | 0.00 | 0.00 | 0.00 | 48 | 1011.8 |
| 20260509144004 | 70 | 105 | 0.9 | 3.5 | 0.00 | 0.00 | 0.00 | 46 | 1012.0 |
| 20260509143004 | 70 | 109 | 0.9 | 4.3 | 0.00 | 0.00 | 0.00 | 47 | 1012.1 |
| 20260509142004 | 70 | 114 | 0.9 | 5.2 | 0.00 | 0.00 | 0.00 | 47 | 1012.2 |
| 20260509140005 | 71 | 147 | 1.7 | 7.0 | 0.00 | 0.00 | 0.00 | 44 | 1012.6 |
| 20260509135004 | 71 | 203 | 0.9 | 4.3 | 0.00 | 0.00 | 0.00 | 44 | 1012.6 |
| 20260509134004 | 72 | 197 | 1.7 | 7.8 | 0.00 | 0.00 | 0.00 | 45 | 1012.6 |
| 20260509133005 | 72 | 173 | 0.9 | 4.3 | 0.00 | 0.00 | 0.00 | 45 | 1012.9 |
| 20260509132004 | 72 | 200 | 0.9 | 5.2 | 0.00 | 0.00 | 0.00 | 46 | 1012.8 |
| 20260509131004 | 72 | 214 | 1.7 | 7.0 | 0.00 | 0.00 | 0.00 | 46 | 1013.2 |
| 20260509130005 | 72 | 211 | 1.7 | 7.0 | 0.00 | 0.00 | 0.00 | 47 | 1013.3 |
| 20260509125004 | 72 | 105 | 1.7 | 6.1 | 0.00 | 0.00 | 0.00 | 47 | 1013.1 |
| 20260509124003 | 72 | 91 | 1.7 | 7.8 | 0.00 | 0.00 | 0.00 | 45 | 1013.1 |
| 20260509122004 | 72 | 105 | 2.6 | 6.1 | 0.00 | 0.00 | 0.00 | 50 | 1013.2 |
| 20260509121005 | 72 | 155 | 1.7 | 8.7 | 0.00 | 0.00 | 0.00 | 48 | 1013.4 |
| 20260509120005 | 72 | 89 | 1.7 | 5.2 | 0.00 | 0.00 | 0.00 | 51 | 1013.4 |
| 20260509115004 | 71 | 83 | 2.6 | 6.1 | 0.00 | 0.00 | 0.00 | 51 | 1013.5 |
| 20260509114003 | 71 | 100 | 1.7 | 6.1 | 0.00 | 0.00 | 0.00 | 48 | 1013.7 |
| 20260509113005 | 70 | 82 | 2.6 | 6.1 | 0.00 | 0.00 | 0.00 | 54 | 1013.7 |
| 20260509111004 | 71 | 127 | 1.7 | 5.2 | 0.00 | 0.00 | 0.00 | 57 | 1013.6 |
| 20260509110004 | 72 | 156 | 1.7 | 7.0 | 0.00 | 0.00 | 0.00 | 56 | 1013.9 |
| 20260509105004 | 71 | 96 | 1.7 | 5.2 | 0.00 | 0.00 | 0.00 | 57 | 1013.9 |
| 20260509103006 | 69 | 83 | 1.7 | 7.8 | 0.00 | 0.00 | 0.00 | 63 | 1013.8 |
| 20260509102004 | 69 | 104 | 1.7 | 6.1 | 0.00 | 0.00 | 0.00 | 63 | 1013.9 |
| 20260509101004 | 69 | 85 | 1.7 | 6.1 | 0.00 | 0.00 | 0.00 | 63 | 1013.7 |
| 20260509100005 | 69 | 100 | 1.7 | 6.1 | 0.00 | 0.00 | 0.00 | 64 | 1013.7 |
| 20260509095004 | 68 | 83 | 1.7 | 7.0 | 0.00 | 0.00 | 0.00 | 66 | 1013.8 |
| 20260509094004 | 68 | 95 | 1.7 | 5.2 | 0.00 | 0.00 | 0.00 | 67 | 1013.9 |
| 20260509093004 | 68 | 101 | 1.7 | 5.2 | 0.00 | 0.00 | 0.00 | 67 | 1013.9 |
| 20260509091004 | 66 | 90 | 1.7 | 5.2 | 0.00 | 0.00 | 0.00 | 74 | 1014.0 |
| 20260509085004 | 65 | 85 | 1.7 | 4.3 | 0.00 | 0.00 | 0.00 | 76 | 1014.1 |
| 20260509084004 | 66 | 98 | 0.9 | 5.2 | 0.00 | 0.00 | 0.00 | 76 | 1014.3 |
| 20260509083004 | 66 | 81 | 0.9 | 3.5 | 0.00 | 0.00 | 0.00 | 77 | 1014.2 |
| 20260509081005 | 66 | 116 | 0.9 | 4.3 | 0.00 | 0.00 | 0.00 | 78 | 1014.4 |
| 20260509080005 | 64 | 64 | 1.7 | 5.2 | 0.00 | 0.00 | 0.00 | 80 | 1014.6 |
| 20260509075004 | 64 | 73 | 2.6 | 6.1 | 0.00 | 0.00 | 0.00 | 80 | 1014.7 |
| 20260509074004 | 63 | 67 | 2.6 | 7.0 | 0.00 | 0.00 | 0.00 | 80 | 1014.8 |
| 20260509073005 | 63 | 47 | 1.7 | 5.2 | 0.00 | 0.00 | 0.00 | 82 | 1014.9 |
| 20260509072004 | 62 | 79 | 0.9 | 5.2 | 0.00 | 0.00 | 0.00 | 82 | 1014.9 |
| 20260509070005 | 61 | 61 | 1.7 | 5.2 | 0.00 | 0.00 | 0.00 | 83 | 1014.8 |